COSMOS 2496

Satellite information

Favourite Embed

Satellite Type and Status

PAYLOADIN ORBIT

Key statistics

Satellite COSMOS 2496 at a glance.

Uptime

4176

Days in orbit

Revolutions

≈ 12.4

Per day

Orbit

LEO

Low Earth Orbit

Inclination

82.4

Latest

Satellite identification and parameters

Extended collection of information and parameters for COSMOS 2496.

Object identification

Identified? True

Debris? False

Object name: COSMOS 2496

International designator: 2014-028A

Object number (NORAD): 39761

Object ID (CCSDS): 39761

Country: COMMONWEALTH OF INDEPENDENT STATES (CIS)

Current information (Y/N): Y

RCS size: LARGE

Orbital parameters

Period: 115.861 minutes

Inclination: 82.4434 deg

SMA: 7872.605 km

Apoapsis: 1509.086 km

Periapsis: 1479.853 km

RAAN: 254.1612 deg

Eccentricy: 0.00185659

Argument of periapsis: 224.4394 deg

Mean anomaly: 135.5197 deg

Mean motion: 12.42868277 rev/day

Mean motion (dot): 0.00000043 rev/day2

B* drag term: 0.00023735567 1/REarth

Two-line elements (TLE)

Creation date: Oct. 28, 2025, 2:18 a.m.

Reference frame: TEME

Reference center: EARTH

Epoch: Oct. 27, 2025, 10:44 p.m. UTC

TLE line 0: 0 COSMOS 2496

TLE line 1: 1 39761U 14028A 25300.94743946 .00000043 00000-0 23736-3 0 9998

TLE line 2: 2 39761 82.4434 254.1612 0018566 224.4394 135.5197 12.42868277518662

Live tracking on map

Real-time ground track for satellite COSMOS 2496.

In-orbit conjunctions

There are no conjunctions computed for COSMOS 2496, at the moment. Check back to stay up to date, as we update our databases every day.

Go to all conjunctions

Associated space launch

Classified payload for Russia

COSMOS 2496 was lifted into orbit during the mission ‘Rokot / Briz-KM | 3x Strela-3M (Kosmos 2496, Kosmos 2497, Kosmos 2498) & Kosmos 2499’, on board a Rokot/Briz-KM space rocket.

The launch took place on May 23, 2014, 5:27 a.m. from 133/3 (133L).

For more information about the launch, click the button.

Launch to space Rokot / Briz-KM | 3x Strela-3M (Kosmos 2496, Kosmos 2497, Kosmos 2498) & Kosmos 2499
Rokot / Briz-KM | 3x Strela-3M (Kosmos 2496, Kosmos 2497, Kosmos 2498) & Kosmos 2499

Agency: N/A

Status: Launch Successful

Launch date: May 23, 2014, 5:27 a.m. UTC

Rocket: Rokot/Briz-KM

Launch pad: 133/3 (133L)

Location: Plesetsk Cosmodrome, Russian Federation

...

Latest news about this satellite

There are no fresh news available about this satellite. Check back as we update our databases every day.


Newsletter sign-up

Weekly statistics, charts and insights to help you stay on top of the space industry.